Theta_e
338 341 341 341 343 345 344 345 344 342 340 341 342 341 340 340 340 340 339 339 339 339 338 338 338 338 338 337 337 335 334 334 334 334 334 333 334 334 334 336 336 336 336 337 337 336 336 336 335 335 336 335 335 336 334 335 335 335 335 335 335 333 333 333 332 332 333 333 333 332 332 331 331 331 330 330 330 330 330 330 329 329 329 328 328
334 340 343 341 343 345 344 344 344 342 341 341 341 340 339 340 340 339 339 338 338 338 338 337 337 337 337 337 336 336 335 336 335 334 334 334 334 335 335 335 336 336 336 337 337 337 337 336 335 335 336 335 335 336 334 334 335 335 335 334 334 333 334 334 332 332 333 333 333 332 332 331 330 330 330 331 330 329 329 329 328 328 329 328 328
333 338 342 342 344 345 344 344 343 341 340 341 341 339 339 340 339 339 338 337 336 337 337 337 337 338 337 336 336 336 336 337 336 333 334 335 334 335 335 335 335 335 336 338 337 337 336 336 335 334 335 336 336 336 335 335 334 335 334 334 334 333 333 333 332 332 332 331 332 333 333 332 331 330 328 329 329 328 328 329 329 329 329 329 329
335 338 340 342 345 345 345 344 343 341 340 340 340 339 339 339 339 339 338 337 336 337 336 336 337 337 336 336 336 336 336 336 336 333 334 336 336 335 336 336 335 335 336 337 337 336 337 337 335 334 336 336 335 334 335 335 334 334 334 333 334 333 333 332 332 333 332 331 332 333 332 332 333 331 328 328 329 329 329 330 329 329 329 328 328
336 339 339 341 346 345 342 338 337 339 340 341 340 338 339 339 339 339 338 337 336 336 335 334 336 336 336 337 336 335 336 335 334 333 334 335 336 336 336 335 335 336 337 336 336 337 337 337 336 335 336 335 335 334 335 335 335 334 334 334 334 333 333 333 332 332 331 331 332 333 333 334 334 331 328 327 328 329 329 329 329 329 329 328 328
336 338 337 340 346 343 335 331 330 332 336 340 340 338 339 339 339 338 338 338 336 335 334 333 334 336 337 337 336 335 335 334 333 333 333 334 335 336 336 336 336 337 336 335 335 336 336 336 336 336 335 333 334 335 334 334 334 334 334 334 333 332 332 333 332 332 331 331 331 332 333 333 332 331 330 329 328 329 329 330 330 329 329 328 328
336 337 337 342 345 339 333 331 331 332 335 340 340 339 338 338 339 339 338 338 337 336 334 333 334 335 336 336 334 335 334 333 333 332 333 335 336 336 336 337 336 335 335 334 334 335 335 336 336 336 335 334 334 334 334 334 334 334 334 333 333 333 333 333 333 333 332 332 331 332 332 331 331 331 331 330 329 329 329 330 330 329 329 329 329
338 339 340 343 342 337 333 332 334 336 337 339 340 339 339 339 339 339 338 338 336 335 334 334 334 335 335 336 335 335 335 334 333 333 334 334 335 336 336 337 336 335 335 334 334 335 335 336 336 336 336 335 335 334 334 334 334 334 334 333 333 333 333 333 333 332 333 333 331 331 332 331 331 331 330 330 330 329 328 329 329 328 328 328 328
336 338 341 342 339 336 334 333 335 336 337 339 339 340 339 340 340 339 339 338 335 334 333 333 335 336 335 336 336 336 336 334 333 333 334 334 335 336 337 336 336 336 335 335 335 334 334 335 335 335 335 334 334 333 333 333 333 334 334 334 333 333 333 333 332 331 332 332 331 331 331 331 332 331 330 330 330 330 329 329 328 328 328 327 327
334 339 339 338 337 336 334 334 334 334 337 339 339 340 340 340 341 340 339 337 333 333 333 333 336 336 335 335 336 336 336 334 333 334 335 334 335 336 336 336 336 336 335 335 334 334 334 334 334 334 334 333 332 332 332 332 332 333 334 334 333 333 333 332 331 331 330 330 331 330 330 331 332 331 331 331 330 330 330 328 328 328 328 327 326
335 338 337 337 337 335 334 334 334 333 337 340 339 340 340 340 341 341 339 337 333 332 333 333 335 335 334 335 335 335 335 334 334 335 335 334 335 336 336 335 335 335 334 334 334 334 334 334 334 333 333 333 332 331 332 332 332 333 334 334 333 333 333 332 332 331 330 330 331 330 330 332 332 331 330 330 330 330 330 329 328 328 328 327 327
336 335 336 338 337 336 334 334 334 334 336 339 340 340 340 340 340 340 338 336 334 333 334 334 334 334 334 334 334 333 334 334 334 334 335 335 335 335 335 334 334 334 333 334 333 333 333 333 333 333 333 333 332 332 332 332 332 333 334 334 334 333 332 332 333 332 331 331 331 331 331 332 332 331 330 329 330 331 330 329 328 327 327 327 326
335 332 335 337 337 337 336 336 337 337 337 340 341 341 341 340 339 337 335 335 335 334 335 335 333 334 333 334 334 333 334 335 335 335 336 335 334 334 334 333 333 333 333 332 332 332 332 332 332 332 333 332 332 332 332 332 333 333 334 334 333 333 332 333 333 333 332 331 331 331 330 330 331 331 331 331 330 330 329 329 327 327 326 325 325
333 331 336 338 335 335 336 337 337 336 336 339 340 340 339 338 337 336 333 334 335 334 335 335 333 333 333 334 334 333 334 336 335 335 336 335 334 334 333 333 333 333 332 332 332 332 331 332 331 330 331 332 332 331 331 333 334 334 334 334 333 333 332 333 332 333 333 332 331 331 330 329 329 330 331 331 330 328 329 329 327 327 326 323 323
332 331 335 335 333 333 332 332 332 331 333 335 337 337 336 335 335 334 333 334 334 333 334 335 333 333 333 333 333 332 332 334 334 334 334 333 333 333 332 333 333 333 333 332 332 332 331 331 330 330 330 330 331 330 330 332 333 333 333 333 333 332 332 333 332 332 333 332 331 331 332 330 329 330 329 330 330 328 328 328 327 327 327 324 322
333 330 330 329 331 332 329 327 328 329 331 332 333 333 335 335 335 334 334 334 334 333 334 334 333 333 333 332 331 331 331 332 333 333 333 332 332 332 332 332 332 332 332 331 331 331 330 330 330 330 330 330 330 330 330 330 331 331 332 332 333 332 332 333 332 331 331 332 331 332 332 331 331 331 329 330 331 328 328 329 327 325 325 324 324
333 330 330 329 330 331 329 328 328 328 330 330 330 332 335 335 335 334 334 334 334 333 333 333 332 334 333 331 330 331 331 331 332 332 331 330 331 332 331 331 331 331 331 330 331 331 330 330 329 329 330 330 330 330 329 329 329 330 331 332 332 332 332 333 332 332 331 331 331 332 332 331 331 332 330 329 331 330 330 329 328 325 324 324 324
332 330 330 330 331 330 330 330 329 330 330 328 329 333 335 334 334 334 333 333 333 333 333 333 332 333 332 331 331 332 330 330 330 329 330 330 331 331 330 330 330 330 330 330 330 330 329 329 329 329 329 329 329 329 328 328 329 330 331 331 331 331 332 332 332 332 331 331 331 332 332 331 331 331 329 329 330 330 330 328 327 326 325 324 322
333 332 331 331 329 329 329 329 329 329 329 328 328 331 331 331 332 332 332 332 332 332 332 332 333 333 332 331 332 332 329 329 329 329 330 330 331 331 330 330 330 330 330 330 329 329 328 329 329 329 329 329 328 328 327 328 328 329 330 331 331 331 331 331 331 331 330 330 331 331 331 332 331 329 328 328 328 328 328 327 326 324 324 323 319
333 333 333 332 331 329 329 329 329 329 328 327 327 329 329 330 331 331 332 332 332 332 332 332 334 334 333 332 331 330 330 330 330 331 331 331 331 331 331 330 330 330 330 329 329 327 327 329 328 329 329 328 328 327 327 327 327 327 328 329 330 331 330 330 330 330 330 330 331 330 331 331 330 328 328 328 328 327 326 326 326 325 324 323 321
330 330 331 331 332 332 331 330 329 328 328 328 329 330 331 332 332 332 333 332 332 331 331 333 334 334 333 333 331 330 330 331 332 332 331 331 332 332 331 329 329 328 329 328 327 327 326 327 327 327 328 327 326 326 326 326 327 327 328 327 328 328 328 328 328 329 329 329 330 330 330 330 329 328 328 328 328 328 327 326 326 326 324 322 323
327 328 328 329 330 331 333 332 328 327 329 330 330 329 330 331 332 332 332 333 332 331 331 334 334 333 333 333 331 330 330 331 333 332 331 332 332 331 330 329 327 327 327 327 327 326 326 326 326 326 326 325 325 325 325 326 326 326 326 326 327 326 326 326 326 327 327 327 329 330 329 329 329 329 328 328 328 328 327 327 326 326 324 323 323
325 325 325 326 328 328 330 331 330 329 328 328 329 328 327 329 330 330 331 332 332 331 333 333 332 332 333 332 331 330 330 331 332 331 331 331 331 331 330 329 327 325 326 327 327 327 326 326 325 325 324 324 323 324 325 325 326 326 326 325 325 325 325 325 325 325 326 326 328 329 329 329 329 329 328 327 328 328 328 328 326 324 324 323 322
322 323 323 324 324 324 324 326 327 328 327 327 327 327 326 327 329 329 330 332 332 331 333 332 329 330 333 332 331 330 330 330 331 331 331 331 331 330 330 329 328 325 325 326 327 326 326 325 324 324 323 323 322 323 324 324 324 325 325 324 324 324 324 324 324 324 325 325 326 329 329 329 328 329 329 327 327 328 328 327 324 323 323 321 319
320 321 321 321 320 320 320 320 321 323 325 326 326 324 324 326 328 330 330 332 332 332 333 332 328 330 333 333 332 331 330 330 330 330 331 330 331 330 329 329 328 326 326 326 325 325 325 324 324 324 323 322 321 321 322 323 323 323 324 323 323 324 324 324 324 323 323 324 325 327 328 327 327 329 328 326 326 326 326 324 323 322 320 318 317
318 318 318 318 317 317 317 317 317 319 321 324 324 324 326 326 327 328 329 330 331 332 333 332 328 329 332 332 332 331 330 331 330 330 330 330 330 329 329 328 327 327 326 325 324 324 323 323 323 323 322 321 319 319 321 323 323 323 323 322 322 323 323 323 322 321 322 323 325 326 327 327 327 327 328 327 326 325 325 323 322 321 319 317 317
316 315 315 315 314 314 314 314 315 316 318 320 321 322 325 327 327 327 327 328 329 330 331 330 327 328 329 329 330 331 331 331 330 330 330 330 329 329 329 328 327 326 325 323 323 323 322 321 322 322 321 320 318 318 320 321 322 322 322 322 322 322 322 322 321 321 321 322 324 325 327 327 327 327 327 326 325 325 324 323 322 321 319 316 317
314 313 312 312 311 311 312 312 313 314 315 317 318 318 320 323 325 326 326 328 328 329 329 328 328 329 329 329 331 331 331 330 330 330 330 329 329 328 328 327 326 325 323 322 322 322 321 320 321 321 319 319 318 318 319 320 321 322 322 322 322 322 322 321 321 321 321 322 323 324 325 327 327 327 327 327 326 324 323 322 320 321 319 317 317
311 310 310 309 308 309 310 310 311 311 312 314 315 315 316 317 320 323 326 327 328 329 329 329 329 330 330 330 332 331 330 329 329 329 329 329 327 327 327 327 325 323 322 321 321 320 320 319 320 321 320 319 318 318 318 319 320 320 321 321 321 321 321 321 321 321 320 321 323 323 323 325 327 327 327 327 327 325 323 322 321 321 320 318 317
309 308 308 307 307 308 308 308 309 309 310 311 311 312 313 314 316 320 324 327 328 328 328 328 328 329 330 330 331 331 329 329 329 328 327 327 327 326 326 325 323 321 320 320 319 319 319 319 321 322 321 320 318 317 317 318 318 320 321 321 320 320 320 320 320 321 320 320 322 322 321 322 325 327 327 326 326 325 323 323 322 322 321 320 320
307 306 306 306 306 307 307 307 307 307 308 309 309 310 311 312 314 315 320 325 327 327 327 327 327 328 328 328 328 330 329 328 328 327 326 327 326 325 324 322 321 320 319 319 319 319 319 320 322 323 321 320 318 316 316 317 318 319 320 320 319 319 318 319 319 320 319 319 320 320 318 317 320 324 326 326 326 326 324 323 322 322 322 321 322
306 305 305 305 305 306 306 306 306 306 307 307 308 308 309 309 310 312 315 319 323 324 324 324 325 326 326 326 326 327 328 327 326 326 326 325 324 323 322 321 321 321 321 322 322 321 322 322 323 321 318 316 315 314 315 316 317 318 319 319 319 319 318 318 318 319 319 319 320 320 318 317 318 319 320 321 322 324 324 322 321 321 321 321 321
304 304 304 304 304 305 305 305 305 305 306 306 306 306 307 307 308 309 310 312 315 318 319 320 321 323 324 324 324 324 326 326 325 325 324 324 323 324 324 323 323 323 323 323 322 322 322 321 320 317 314 313 313 312 313 314 314 315 316 316 318 320 318 317 318 319 319 320 320 320 320 320 320 318 318 318 318 318 319 319 318 317 317 318 319
304 303 303 304 304 304 304 304 304 305 305 305 304 304 305 305 306 307 308 308 309 311 314 315 316 318 320 321 321 322 322 323 323 323 323 322 323 323 324 324 324 323 322 321 321 320 319 318 316 314 313 313 313 313 313 313 313 313 312 314 318 320 318 318 319 320 320 320 320 320 320 320 321 320 319 319 319 319 319 319 319 318 317 316 315
303 303 303 303 303 303 303 303 303 303 304 304 303 302 303 303 304 305 305 306 307 307 308 310 311 313 314 316 317 318 318 318 318 319 319 319 320 321 321 321 321 321 320 319 318 317 316 315 315 314 313 313 313 314 314 314 313 313 312 314 318 320 319 320 320 319 319 320 319 319 319 319 320 320 319 318 319 321 321 322 322 321 321 319 318
303 303 303 303 303 302 302 302 301 301 302 302 302 302 302 302 302 302 302 303 304 304 304 306 307 309 310 311 312 313 313 314 314 315 315 316 316 317 318 318 318 318 317 317 316 315 315 314 315 315 314 312 311 313 315 315 315 315 315 317 320 320 320 320 321 321 320 320 321 321 321 321 320 320 320 319 319 319 319 320 320 320 321 321 320
303 303 302 303 303 303 302 302 301 301 300 301 301 301 301 301 301 301 301 301 302 302 302 303 304 305 306 308 309 310 310 311 312 313 313 313 313 314 315 316 316 316 316 315 315 315 314 313 313 313 311 310 309 311 313 315 317 318 318 319 319 319 320 320 321 322 322 321 322 323 323 322 321 321 321 321 321 320 320 320 320 321 321 321 321
302 302 301 302 302 302 302 302 301 300 300 299 300 300 300 300 300 301 301 301 301 300 300 301 302 303 304 304 306 307 307 308 310 310 310 310 312 312 313 314 315 315 315 314 313 313 312 311 310 308 307 306 307 307 308 311 314 316 317 318 317 316 318 319 320 321 321 321 322 323 321 320 319 319 319 320 320 321 321 321 321 321 321 322 323
302 301 301 301 301 301 301 301 301 301 300 299 299 299 299 299 299 300 300 301 301 300 300 299 300 301 302 303 303 304 305 305 306 307 307 308 309 309 310 312 312 312 312 312 312 311 311 309 308 308 308 309 308 307 306 306 307 309 311 314 315 314 314 315 316 315 316 318 319 319 318 317 315 314 314 314 314 314 314 314 313 312 313 316 319
301 301 300 300 300 300 300 300 300 300 300 300 299 298 298 299 299 299 300 300 300 300 300 300 299 300 300 301 302 303 303 304 304 305 305 306 307 307 308 308 308 308 308 308 308 309 308 307 307 307 307 307 305 303 302 302 302 301 302 306 310 312 311 311 311 310 310 313 315 315 315 314 312 311 310 310 310 309 308 308 307 305 304 306 308
301 300 300 300 300 300 299 299 299 299 300 300 299 298 298 299 299 299 299 299 300 300 300 300 300 299 299 300 301 301 302 302 303 303 304 304 305 306 306 307 307 307 307 306 306 305 306 306 307 306 303 301 300 298 298 299 299 298 298 299 302 304 305 304 304 306 307 310 312 313 311 309 308 308 308 308 308 308 307 307 306 303 301 300 300
300 300 300 299 299 300 300 299 299 298 298 298 298 298 299 299 299 299 299 299 299 300 300 301 301 301 300 300 301 301 302 302 302 302 303 304 303 304 304 305 305 306 306 306 306 306 306 306 307 307 305 302 300 299 299 299 298 297 297 297 297 298 298 298 299 302 305 306 307 308 307 305 305 304 305 305 305 304 304 303 302 300 299 298 298
300 300 299 299 299 299 299 300 299 299 298 298 298 298 299 299 299 299 299 298 298 299 300 301 301 301 302 301 301 302 302 302 303 303 304 304 304 303 303 303 304 304 305 305 306 307 307 307 307 307 306 305 303 303 302 301 299 298 298 297 297 297 297 296 296 299 302 303 304 304 303 303 302 301 300 300 299 299 298 298 297 297 297 297 297
300 300 300 300 299 299 299 299 299 299 299 299 299 299 299 299 299 299 299 299 299 299 299 300 300 301 302 302 302 302 302 303 303 303 304 304 304 304 304 305 305 305 305 305 305 306 307 307 307 307 306 305 305 304 303 302 301 300 299 299 299 299 298 297 298 300 301 302 301 301 300 299 298 297 297 297 297 297 298 298 299 299 299 298 298
300 300 300 300 300 300 300 299 299 299 299 299 299 300 299 299 300 299 299 299 299 299 299 300 300 301 302 302 302 302 302 302 303 303 303 303 304 304 305 305 305 305 305 304 304 305 305 305 306 306 306 306 305 304 302 301 301 300 299 299 300 300 300 300 301 301 301 300 300 299 298 297 297 298 299 300 300 301 301 302 303 303 303 303 302
301 300 300 300 300 300 300 300 300 300 299 299 299 300 300 300 300 299 299 299 299 299 299 299 299 300 301 302 302 302 301 302 302 302 303 303 303 304 304 304 304 305 304 304 304 305 305 305 306 306 306 306 305 303 301 301 300 300 299 299 300 300 300 301 301 301 301 301 299 298 297 298 300 302 302 303 303 304 304 305 305 305 306 306 305
301 300 300 300 300 300 300 300 300 300 300 300 300 300 300 300 300 299 299 300 300 299 299 299 298 298 299 301 302 302 301 300 300 300 301 301 302 302 301 301 302 303 304 304 304 304 305 305 305 305 305 305 303 301 301 300 300 299 299 299 299 300 300 300 300 300 300 299 298 298 299 301 303 303 303 304 304 304 304 304 304 304 304 304 305
300 300 300 300 300 300 300 300 300 300 300 300 300 300 300 301 301 300 300 300 300 300 300 300 300 299 299 300 301 302 302 301 300 299 298 298 299 300 299 298 298 300 302 303 302 302 303 303 303 303 303 303 301 300 300 300 299 298 298 298 298 298 299 299 298 298 297 297 298 300 301 302 303 303 303 303 303 303 302 302 302 302 302 302 303
300 300 300 300 300 300 299 299 300 300 300 300 300 300 300 300 301 301 301 301 300 300 300 300 300 300 301 301 301 302 302 302 302 300 299 298 298 298 298 298 297 298 299 300 300 300 301 302 301 300 300 299 299 298 298 298 298 298 298 297 298 298 297 297 297 296 297 298 300 301 302 302 302 302 302 301 301 301 301 301 301 301 301 302 302
300 300 300 300 300 300 300 300 300 299 299 299 300 300 300 300 300 301 301 301 301 300 300 299 299 300 300 301 301 301 301 302 302 302 300 299 298 298 298 297 297 297 297 297 297 298 299 300 299 298 297 298 298 298 298 298 297 297 297 297 297 297 297 297 297 297 298 299 300 301 301 302 302 301 301 301 301 301 301 301 301 301 301 301 301
300 300 301 301 300 300 300 300 300 300 299 299 299 299 299 299 300 300 300 300 300 300 300 300 299 299 299 300 300 301 301 301 302 302 302 300 299 298 298 297 297 297 297 297 297 297 297 297 297 297 297 297 298 297 297 297 297 297 297 298 298 298 298 298 298 299 299 300 300 300 301 301 301 301 301 301 301 300 301 301 301 301 301 301 301
Wind_Speed
11 11 11 11 11 11 13 15 15 13 13 16 19 21 21 23 23 23 25 23 22 23 23 22 22 20 19 19 20 17 15 17 19 20 20 16 16 19 19 18 17 16 16 15 12 11 12 12 11 11 10 10 9 8 9 10 9 8 8 8 8 9 11 11 12 11 12 10 8 9 11 10 9 9 9 8 8 10 10 9 11 13 12 11 10
12 13 12 13 13 14 16 17 17 15 15 17 20 21 20 21 21 22 25 23 20 21 21 22 22 20 19 19 19 17 14 15 16 18 19 16 17 19 18 17 16 17 16 14 14 12 13 12 11 12 11 10 10 8 8 10 9 8 8 9 8 9 10 12 13 10 9 9 8 7 8 9 8 9 9 10 9 10 11 9 8 10 11 10 10
11 11 11 13 15 16 18 19 19 16 15 17 19 19 19 19 19 20 22 20 19 18 19 20 20 18 18 18 17 15 12 13 14 17 18 14 16 18 17 15 16 17 16 15 15 13 12 12 12 14 12 10 11 10 9 9 9 8 8 9 8 9 10 11 13 10 9 11 9 5 3 4 6 7 9 10 10 9 11 11 9 9 10 10 10
12 12 11 12 14 16 18 17 17 16 14 15 17 18 18 18 19 19 19 19 18 17 18 19 18 18 18 17 15 14 12 12 13 16 16 13 15 17 15 14 15 15 14 13 14 13 12 11 11 13 12 11 12 11 10 9 9 9 9 9 9 11 11 10 11 11 11 11 6 3 3 3 2 5 9 9 9 10 11 12 11 11 12 11 11
13 15 13 11 13 13 10 5 3 6 10 14 17 18 18 18 19 19 19 19 19 18 18 17 18 18 17 16 15 13 12 12 13 15 16 14 15 15 14 14 13 12 12 12 12 12 13 12 11 12 12 11 11 11 10 9 9 10 10 9 10 10 11 11 10 9 9 9 7 4 3 1 1 7 10 6 8 11 10 11 12 13 13 12 12
13 15 14 12 12 12 10 8 4 3 10 15 19 18 17 18 18 19 18 18 18 20 19 17 19 19 16 17 17 14 12 13 15 17 17 15 15 14 13 13 12 11 12 12 11 11 12 12 11 11 11 11 11 10 9 9 9 10 10 9 9 8 10 12 10 8 7 8 7 4 3 3 5 9 7 3 5 8 9 10 11 12 13 12 10
13 13 15 12 12 15 13 14 17 15 17 19 18 18 17 17 18 19 19 18 17 19 20 16 18 19 15 17 19 15 14 14 15 17 18 16 14 14 13 13 12 12 12 12 11 11 11 11 11 11 10 10 10 10 9 9 9 9 10 9 8 8 9 11 11 9 6 6 6 4 5 6 7 8 6 4 4 4 6 9 9 10 11 10 9
15 14 16 15 13 16 16 16 22 27 24 19 18 19 17 17 19 20 19 18 16 17 19 15 15 17 15 15 15 13 14 15 14 15 16 15 14 13 12 12 13 12 12 12 12 11 11 11 11 10 9 9 9 8 8 8 8 8 9 9 8 8 7 9 11 10 8 7 8 6 5 5 5 8 9 8 5 3 5 6 7 9 9 9 11
12 12 12 15 15 17 22 23 27 28 23 19 21 22 21 20 20 20 18 16 15 13 15 14 12 14 14 13 12 12 13 16 17 15 13 13 13 13 11 12 13 12 12 12 12 11 11 11 10 9 9 8 8 7 6 7 7 8 9 8 8 8 7 7 9 9 8 8 9 7 6 6 7 8 9 9 7 5 4 5 7 9 8 9 13
8 8 7 9 14 21 28 28 27 27 23 22 24 22 22 21 19 19 17 15 16 14 15 17 14 14 16 14 13 15 15 15 18 15 12 13 13 13 12 13 13 12 12 12 11 11 11 10 10 9 9 8 7 7 7 7 7 8 9 9 8 7 7 7 6 7 8 7 7 7 7 8 8 7 6 7 7 5 4 7 11 11 8 9 13
10 12 9 8 12 19 24 24 25 24 20 20 23 22 20 20 19 19 18 17 20 19 18 21 18 15 18 19 17 19 18 17 18 15 13 14 14 14 14 13 13 13 12 12 11 10 9 10 9 9 9 8 7 7 8 8 8 8 9 9 8 8 7 6 5 7 8 7 6 7 7 8 7 6 8 9 7 5 5 7 11 13 11 10 12
10 9 7 7 7 9 9 11 16 20 19 16 18 19 17 17 18 19 18 17 19 21 19 20 20 18 20 21 20 20 19 18 19 17 15 16 15 15 15 14 14 13 13 12 11 11 10 9 9 8 8 8 7 7 8 8 8 8 8 8 8 8 7 7 7 7 8 8 7 8 8 8 7 7 10 10 8 8 9 8 10 13 12 11 14
11 8 4 2 2 5 6 9 13 15 16 15 13 14 14 14 16 19 19 18 20 22 22 22 20 19 21 20 18 19 19 18 17 15 15 17 16 16 15 15 14 13 12 12 11 11 10 9 9 8 7 7 7 7 7 7 7 7 7 7 8 8 8 7 7 7 7 7 8 8 9 8 8 8 9 10 10 12 11 9 12 13 11 12 15
10 6 1 2 2 3 2 6 6 5 9 12 11 13 14 17 19 20 19 20 23 25 25 26 24 21 21 19 17 20 21 19 18 15 14 16 16 16 15 14 13 12 12 11 10 10 9 8 8 7 7 7 7 6 6 7 8 7 6 7 7 8 8 7 7 7 7 7 7 8 7 7 9 9 9 9 10 13 12 10 11 12 12 14 15
10 4 2 5 4 4 5 4 6 5 9 11 9 11 13 17 20 21 20 19 22 25 26 29 31 28 25 21 20 23 23 21 21 18 13 14 16 16 14 13 13 12 12 12 11 10 9 9 8 7 7 7 7 7 6 6 7 7 6 7 7 7 7 8 8 8 8 7 7 8 7 7 8 8 10 10 10 13 14 11 10 9 7 8 10
10 7 2 7 7 4 4 2 3 9 12 12 8 8 10 15 19 21 23 23 24 26 26 29 33 32 30 27 25 25 23 22 21 19 15 14 16 15 13 13 13 13 13 12 12 11 10 9 8 7 7 7 7 6 6 5 6 6 5 6 7 7 7 7 7 8 9 8 7 7 8 8 6 7 10 11 9 11 12 10 10 10 8 4 4
7 7 5 8 5 2 6 8 12 16 11 3 7 14 17 19 22 24 26 27 27 26 26 29 32 33 34 33 30 27 24 23 22 21 17 15 15 14 13 13 13 13 14 13 12 11 10 9 9 8 7 7 6 5 5 6 6 5 5 6 7 7 7 7 7 7 8 9 8 8 9 8 7 8 10 12 10 9 12 11 10 10 9 5 4
7 6 3 4 2 2 4 10 13 12 7 8 15 23 23 20 22 25 24 26 29 27 26 30 33 35 38 38 33 28 24 23 23 21 17 16 16 15 13 14 14 14 14 13 12 11 10 9 9 8 8 7 6 5 5 5 6 5 4 6 7 7 7 7 7 7 7 8 9 9 9 9 9 9 10 13 11 10 13 13 11 11 7 4 7
5 5 3 1 1 5 6 8 8 7 8 14 20 22 18 16 20 21 17 20 27 26 25 29 30 30 36 39 34 29 26 22 22 21 20 20 18 15 15 15 14 14 13 12 11 10 10 9 8 8 7 6 6 5 4 4 5 5 4 5 5 6 7 6 7 7 6 7 8 9 10 9 9 10 10 12 12 10 12 13 12 12 8 5 10
8 8 6 5 2 2 4 5 7 17 16 17 17 15 14 13 15 15 13 16 23 24 23 26 26 24 28 35 35 32 27 22 21 22 22 21 18 16 16 15 14 13 13 12 11 11 11 9 8 8 7 6 5 4 4 4 5 4 3 4 4 4 6 6 6 6 5 6 7 8 10 10 9 10 10 11 11 9 11 13 11 11 8 6 7
11 10 10 9 10 10 7 8 8 12 12 12 12 11 11 10 11 13 13 13 17 19 21 24 26 25 25 32 36 34 28 22 22 23 22 20 18 17 16 15 14 13 13 13 11 11 10 9 9 9 7 7 5 4 4 3 4 5 4 4 4 4 5 6 6 5 5 5 6 8 10 10 10 11 10 10 10 10 11 14 11 8 9 9 7
11 11 12 11 12 15 14 14 11 5 1 2 4 4 5 5 5 7 9 11 12 16 22 25 25 25 26 29 34 34 30 25 23 22 21 20 19 18 17 15 14 14 13 12 11 11 10 9 9 9 8 7 5 4 4 4 5 5 4 5 5 4 6 7 6 5 5 5 4 6 8 10 10 10 10 10 11 11 10 12 12 10 11 12 9
12 11 12 12 15 17 18 17 14 8 6 6 5 4 0 4 3 4 7 10 12 17 23 24 23 24 25 28 32 32 31 31 27 24 22 20 19 18 17 16 14 13 13 11 10 10 9 9 9 9 8 7 5 5 4 4 5 6 5 5 4 4 5 6 6 5 6 7 4 4 7 9 11 11 12 11 11 12 10 10 13 15 14 12 11
12 11 11 13 17 19 19 20 20 16 11 7 9 11 6 3 6 8 10 12 16 21 25 24 23 25 26 28 30 29 32 33 30 27 24 21 20 18 17 16 14 13 13 11 11 10 8 8 8 9 9 7 5 5 4 4 5 6 5 5 3 3 4 5 5 4 5 7 5 3 5 7 9 11 12 11 11 13 12 12 15 17 15 10 11
12 12 12 13 15 16 17 19 20 20 17 12 11 12 7 6 7 7 7 11 16 22 25 25 24 25 26 28 28 28 31 32 30 28 26 22 20 19 17 15 14 13 12 11 12 10 7 8 8 8 9 8 6 6 4 4 5 5 5 5 4 4 5 5 4 2 3 5 4 3 3 5 7 9 10 11 13 13 12 13 16 18 13 7 10
12 12 12 13 13 15 18 19 19 20 19 16 15 12 7 9 10 9 8 9 12 18 23 24 23 24 25 26 26 26 28 29 28 27 25 22 20 19 17 15 13 13 12 11 11 9 8 8 8 7 9 7 6 6 5 4 5 4 4 4 4 5 5 3 4 3 3 5 4 3 3 6 8 9 9 9 12 15 15 14 16 16 12 9 9
11 12 13 13 14 15 18 19 19 20 19 18 18 17 13 9 10 10 10 10 12 15 16 18 21 23 25 25 23 24 26 26 26 27 24 22 19 18 17 16 13 13 13 12 10 9 8 8 8 7 8 8 7 6 6 5 4 4 4 3 3 4 3 3 3 3 3 5 4 3 2 5 8 8 10 8 8 13 15 14 15 12 10 13 13
13 13 14 15 15 14 16 19 20 20 21 20 19 20 19 15 10 8 9 9 9 12 12 16 21 22 23 23 22 23 25 25 25 25 24 22 19 18 16 14 13 13 13 12 10 9 8 8 8 8 9 9 8 7 7 5 4 5 5 4 4 2 2 3 2 1 5 5 3 2 2 3 7 8 9 7 6 8 10 12 13 9 7 15 17
15 15 15 15 14 13 16 19 20 20 21 21 20 21 21 20 17 11 7 5 4 5 8 17 21 18 19 23 23 23 25 24 24 24 22 21 20 17 14 13 13 13 12 11 11 10 9 8 9 10 10 9 7 6 7 5 5 7 6 3 4 4 2 4 3 0 4 4 4 4 4 2 6 7 7 6 6 6 5 7 8 3 4 12 14
15 15 14 14 13 14 16 18 19 20 20 19 19 19 20 22 22 17 10 4 3 5 10 17 19 16 19 24 24 24 26 24 23 23 21 20 18 15 13 14 14 13 12 12 11 10 9 9 11 11 10 9 8 7 7 5 5 7 6 4 3 3 2 3 5 4 3 4 6 5 3 3 4 6 8 8 8 5 2 2 3 1 4 6 4
14 13 13 13 13 14 17 18 19 20 20 20 19 18 20 25 26 23 18 14 13 12 11 13 14 14 17 22 21 21 24 24 22 23 21 19 17 12 11 14 14 13 12 12 12 11 11 12 11 10 9 8 7 7 6 5 5 6 7 6 4 1 1 1 1 2 3 6 8 6 5 5 5 4 8 8 7 6 4 2 2 1 2 3 3
13 13 13 13 13 14 16 17 18 19 20 20 20 20 22 26 28 27 24 21 20 17 13 12 13 13 14 17 17 17 21 21 21 21 20 19 15 10 11 15 15 14 14 14 14 14 14 13 11 9 8 7 7 6 5 5 4 4 6 6 5 3 0 1 1 1 1 5 8 7 7 7 6 6 5 5 5 6 7 6 5 4 4 5 6
13 13 13 13 13 14 17 18 18 20 20 21 22 23 23 25 28 29 28 26 24 21 19 18 17 17 16 17 17 19 22 22 21 20 19 18 16 13 14 17 16 16 17 16 16 16 15 13 11 9 8 7 7 6 5 5 5 4 5 3 3 4 0 2 2 1 3 2 6 9 8 7 7 5 3 2 3 5 6 7 7 7 8 8 9
13 13 13 14 15 16 17 18 20 20 20 22 25 26 25 26 28 30 31 31 28 24 22 22 22 21 20 20 20 22 25 25 24 23 22 21 20 20 19 19 18 18 18 17 16 15 14 12 10 10 9 8 7 6 5 6 5 5 6 4 2 5 3 2 3 3 4 6 5 5 5 6 7 5 4 4 4 4 4 4 4 6 8 10 11
13 13 14 16 18 18 18 19 22 23 21 22 25 27 28 28 28 30 31 31 30 28 25 25 26 25 23 23 24 26 27 27 27 27 26 24 23 23 22 20 20 19 17 16 15 13 12 11 10 10 9 9 9 7 6 6 6 5 5 3 2 5 4 5 5 4 3 4 3 2 3 4 5 5 5 5 4 5 4 3 4 5 6 7 10
11 13 15 17 19 19 19 19 23 26 25 23 24 26 28 29 29 30 30 29 32 33 30 28 28 27 25 25 25 27 27 26 26 26 25 23 22 23 22 19 19 18 16 14 12 10 9 7 6 6 7 8 8 7 6 5 5 6 4 3 2 2 2 4 4 2 2 3 2 1 3 3 3 2 2 4 5 5 5 5 5 6 7 8 9
14 15 16 17 17 18 19 20 23 27 27 26 24 24 26 27 29 31 31 30 33 34 31 30 30 28 27 26 25 26 25 24 23 23 21 20 20 20 19 17 16 15 14 14 13 11 10 9 8 6 6 7 7 7 5 4 4 5 4 5 5 3 2 1 1 1 1 2 1 1 1 1 2 3 3 3 5 5 5 6 6 8 9 10 10
16 17 18 18 18 18 18 20 23 25 26 26 25 25 27 29 29 29 30 32 33 33 31 30 29 28 27 27 27 27 25 24 23 21 20 19 18 16 15 13 12 12 12 14 15 14 13 12 11 9 7 7 6 6 6 4 4 3 2 3 5 6 5 3 3 3 1 1 3 3 2 2 4 5 6 6 6 6 7 7 7 8 9 9 10
18 19 19 19 19 19 19 20 22 23 23 25 26 26 29 31 30 29 30 31 31 30 30 29 28 28 28 28 28 28 27 25 23 21 21 21 19 17 16 15 13 13 13 13 13 13 12 10 10 9 7 6 6 6 6 5 5 4 3 3 3 5 7 7 6 7 6 2 1 2 2 3 2 3 5 6 7 6 7 7 8 9 10 9 10
19 20 20 20 20 21 21 21 20 19 19 21 26 28 29 29 29 30 31 29 27 26 26 27 28 28 28 27 27 27 26 25 23 21 20 20 19 18 17 18 17 15 14 12 10 10 10 9 9 8 6 6 8 8 8 7 7 6 4 2 2 3 5 6 5 8 9 6 2 1 1 0 1 4 5 6 7 8 8 9 11 12 12 13 15
18 18 19 20 21 22 23 22 21 20 18 18 22 26 26 26 28 30 29 25 24 25 26 27 27 27 27 26 26 25 24 23 22 21 19 18 17 16 16 17 16 15 13 12 10 10 11 9 8 7 7 8 9 9 9 9 8 7 5 4 4 5 5 6 5 6 8 8 5 2 4 5 6 7 9 10 10 11 12 14 15 16 17 18 20
18 19 19 19 19 21 22 22 23 24 22 21 21 22 22 23 25 26 24 23 24 25 25 26 27 27 26 26 25 25 24 23 22 21 20 19 17 15 15 15 14 13 12 11 9 9 9 8 7 7 8 9 9 10 11 11 10 9 8 7 7 6 6 6 5 4 5 8 7 4 8 10 12 13 14 15 16 17 18 19 20 21 21 21 21
19 20 20 19 19 19 20 20 20 22 23 23 24 22 21 21 22 22 21 22 24 25 26 26 25 25 25 25 25 25 25 24 23 21 21 19 16 15 14 14 12 10 9 9 8 6 6 7 7 6 6 7 9 11 12 13 12 12 11 11 10 10 8 7 6 5 5 6 7 9 12 15 16 18 18 18 18 18 18 18 18 17 17 17 18
18 20 20 19 18 18 18 19 19 19 20 21 21 20 20 20 19 19 20 21 23 24 26 27 25 23 22 23 24 25 25 24 22 21 20 17 14 13 12 11 10 8 7 7 6 5 5 6 7 8 6 5 6 9 12 13 13 14 14 13 13 12 11 9 8 6 6 7 10 12 14 15 16 17 17 16 16 15 14 13 13 13 13 14 15
16 18 18 18 18 16 16 16 17 18 18 17 17 16 16 16 16 16 18 19 20 21 23 23 23 22 20 19 20 21 21 20 18 18 18 16 14 12 11 10 9 8 7 6 5 5 5 4 6 8 9 7 7 9 12 13 12 14 14 13 13 13 12 11 10 8 7 9 11 13 14 13 11 11 12 13 12 11 11 12 12 13 13 13 13
14 15 15 16 16 16 16 15 16 16 15 14 14 14 13 12 13 14 15 16 17 19 20 20 20 20 19 19 19 18 18 17 16 15 15 17 16 13 12 12 11 11 10 8 6 6 7 6 7 8 8 10 12 12 11 9 9 11 12 10 11 11 11 10 10 8 8 11 13 15 14 12 11 11 11 11 11 11 12 13 14 14 15 15 14
12 13 13 13 14 14 14 14 14 15 15 13 12 12 11 11 12 13 14 15 15 16 16 16 16 16 16 17 18 16 16 17 17 14 14 16 16 14 12 11 12 12 13 14 14 13 13 13 10 8 9 11 12 10 8 7 10 11 10 8 7 7 7 7 7 7 9 11 13 12 10 9 10 11 11 11 11 11 12 14 15 16 17 17 15
10 11 11 12 12 12 13 12 11 11 13 13 12 11 11 10 10 10 12 13 13 13 13 13 13 13 13 14 14 12 11 13 17 17 15 16 16 14 12 12 11 11 12 14 14 13 14 15 13 10 12 13 10 9 10 9 11 11 9 6 5 4 4 4 6 7 8 8 9 9 9 9 10 11 11 12 13 14 15 16 16 17 18 18 16
6 7 8 9 9 10 11 11 10 9 10 11 11 10 9 9 9 9 8 8 9 12 12 11 10 10 10 10 10 10 8 8 10 13 15 16 17 16 15 14 13 11 11 11 10 9 10 12 10 9 11 11 9 10 9 8 8 9 9 8 6 5 5 5 5 7 8 8 9 11 11 11 11 11 11 13 14 14 15 16 16 17 17 17 18
5 5 5 5 7 8 9 10 11 11 10 9 9 9 8 8 8 9 9 8 7 10 11 10 10 10 9 8 8 8 7 6 6 7 9 13 16 17 16 16 15 14 12 12 12 11 9 8 7 7 8 9 8 8 7 6 7 8 9 10 9 9 8 6 5 7 8 9 11 13 13 12 12 13 14 14 14 15 15 16 16 16 16 16 17
2 3 3 4 4 5 6 8 11 12 12 11 9 9 8 8 8 9 10 9 8 8 8 8 8 8 7 7 6 6 5 5 4 2 3 7 12 14 14 14 13 13 13 12 13 12 11 9 7 7 8 7 7 6 6 6 7 9 11 12 13 13 10 8 7 8 10 11 12 13 14 15 16 15 16 16 16 16 17 18 18 18 18 18 18
Wind_Direction
156 170 178 175 181 182 185 179 170 174 184 188 184 178 175 176 174 173 172 168 164 160 153 152 157 160 158 159 165 167 166 166 164 170 179 179 172 176 185 188 187 186 188 185 183 182 176 181 182 174 178 179 180 184 175 170 164 162 164 154 149 145 137 139 148 144 124 112 113 109 100 99 102 102 105 119 134 138 141 137 133 140 146 146 148
163 167 160 170 184 182 183 179 173 183 196 193 187 183 180 179 176 174 171 170 173 164 153 158 164 162 159 163 169 166 162 163 161 166 173 176 172 175 184 187 184 183 186 186 185 186 182 184 187 182 182 184 182 176 172 171 164 162 163 157 154 149 146 149 152 145 128 129 129 118 101 93 96 95 102 124 140 143 140 140 137 134 138 144 148
178 162 153 175 180 177 184 183 178 186 195 192 188 184 183 180 176 174 172 174 176 165 160 167 167 159 155 162 170 161 153 161 164 167 169 173 174 174 181 187 185 183 184 187 187 188 185 188 194 187 183 189 185 173 170 173 167 166 164 160 159 150 147 157 159 149 132 132 128 122 115 103 100 92 99 119 136 144 137 137 145 142 140 145 151
178 167 168 180 174 175 185 186 181 181 187 192 188 181 179 179 175 172 174 174 168 164 169 172 164 157 153 159 165 158 156 162 166 171 170 170 172 173 180 185 188 186 183 186 189 189 188 193 197 187 183 192 195 185 176 177 175 172 171 169 167 156 147 158 170 159 140 137 129 105 126 127 110 113 109 113 129 139 138 141 151 153 149 148 151
177 171 173 179 174 168 164 163 177 191 197 193 186 182 177 178 175 171 173 171 166 169 175 174 165 158 155 157 157 152 159 165 169 174 175 173 170 175 187 186 185 187 184 185 191 190 188 189 188 184 191 195 192 191 184 182 180 174 177 179 176 165 148 153 170 166 160 159 142 111 126 127 129 135 126 120 136 137 142 149 149 151 151 147 144
180 172 172 176 163 135 121 142 154 259 245 210 190 186 179 176 175 171 172 171 169 176 181 179 171 164 159 162 163 158 162 172 179 178 175 177 179 181 187 184 183 187 184 183 187 187 186 188 185 185 197 194 184 188 189 186 183 180 182 181 182 174 150 147 157 161 163 161 144 121 109 112 144 150 136 122 143 137 146 155 151 150 149 142 135
178 170 171 168 142 117 120 151 162 183 216 214 195 186 180 178 177 174 175 173 171 180 185 180 173 172 168 169 172 168 169 178 184 181 174 176 184 183 182 185 185 182 179 179 182 184 184 186 184 183 188 187 184 189 192 190 190 187 181 177 181 180 161 151 157 163 153 148 156 143 111 114 141 153 144 139 142 133 147 155 157 155 151 145 137
171 169 168 159 130 124 136 157 175 185 196 202 193 186 183 181 178 176 177 172 166 180 187 177 171 177 176 172 173 170 174 179 179 181 181 180 184 182 182 185 180 177 177 175 176 179 179 180 180 178 178 181 185 190 194 192 193 187 176 174 176 175 173 159 156 163 155 152 165 154 132 134 137 138 146 152 139 126 150 152 152 150 145 147 143
167 165 158 145 125 139 159 171 184 187 188 193 191 187 182 179 178 174 172 162 151 169 188 183 173 172 171 169 169 169 172 177 179 183 184 180 181 183 183 182 178 177 176 172 172 172 169 171 172 171 171 176 181 185 189 190 194 185 172 175 173 167 180 172 161 166 162 159 164 156 143 141 133 129 141 148 133 132 154 147 146 142 128 135 142
133 111 90 118 131 152 169 178 185 186 186 190 190 188 181 177 174 167 161 149 143 156 179 189 185 169 172 178 176 174 169 173 181 180 180 181 182 185 184 181 177 173 171 170 170 169 165 165 167 169 170 172 176 180 182 179 182 180 174 179 174 166 176 174 163 166 166 165 164 164 158 144 139 135 138 141 130 132 143 144 153 147 127 136 148
98 94 96 130 147 161 174 183 186 187 190 189 187 187 179 173 171 161 155 150 148 155 170 187 192 178 183 191 185 180 174 173 177 174 182 186 180 183 184 179 173 169 169 168 166 166 164 163 165 169 170 170 173 176 175 172 175 178 176 177 176 173 174 168 157 154 157 163 164 165 168 157 149 151 154 149 141 149 147 146 156 148 138 151 159
89 86 104 129 142 160 180 193 190 192 198 194 184 181 174 175 171 151 146 154 154 156 165 181 190 188 191 195 191 187 180 176 179 179 184 183 178 182 181 173 171 169 168 167 168 167 162 161 163 164 167 169 172 170 167 171 176 179 174 171 175 174 168 165 167 160 154 158 161 162 167 161 151 156 158 152 155 163 148 140 153 150 145 155 168
82 67 52 40 114 148 189 214 200 195 197 189 172 165 156 152 152 142 148 165 164 161 164 169 180 192 195 195 198 195 183 178 184 184 181 178 178 179 176 172 169 167 166 165 165 164 160 161 161 161 164 165 167 166 166 169 172 178 176 171 173 171 168 167 168 168 165 164 165 168 174 168 156 160 162 157 164 163 150 146 157 160 153 152 172
85 93 141 253 241 122 170 231 229 230 211 190 162 149 141 132 139 147 157 172 171 168 169 168 170 184 191 193 203 200 189 184 184 179 176 178 179 178 176 173 168 165 166 165 161 156 156 161 160 160 161 159 160 162 165 167 167 172 175 174 173 171 174 175 172 173 166 161 162 160 170 175 164 168 171 164 167 166 161 163 163 161 159 159 172
96 96 344 284 289 64 73 10 332 281 229 212 177 138 137 141 144 152 161 173 178 176 176 173 169 172 181 188 200 203 198 192 184 174 174 181 182 179 176 172 168 166 166 165 162 157 157 160 159 159 159 156 156 155 155 161 166 169 173 177 178 177 178 176 182 185 171 162 167 160 163 178 177 184 184 172 170 174 173 175 177 166 157 165 166
101 119 184 267 294 13 76 45 285 226 226 233 204 144 145 157 153 159 169 176 181 181 180 174 166 166 173 181 192 200 197 190 183 174 174 185 185 178 172 169 168 167 164 162 161 159 159 160 159 160 158 153 153 150 150 161 170 172 177 176 173 179 183 178 186 191 179 174 178 171 168 176 180 184 185 177 173 186 188 189 195 176 150 157 163
83 114 185 227 235 196 173 186 206 212 218 214 161 176 188 178 164 168 177 182 186 187 182 173 166 166 171 177 186 191 187 185 180 169 171 186 184 175 169 165 164 162 158 157 158 159 159 160 162 162 155 151 153 150 154 169 173 173 186 188 180 183 186 184 189 193 188 184 181 179 173 176 186 178 176 176 168 184 195 194 203 189 165 167 168
85 109 213 255 279 273 201 201 214 214 192 148 167 189 192 175 170 176 180 185 188 187 182 174 171 171 170 171 177 180 180 181 171 163 175 186 176 167 164 160 158 157 154 154 157 157 156 157 159 158 154 153 156 158 162 166 163 166 188 196 192 193 190 186 193 201 201 190 184 187 176 176 199 194 181 183 175 182 194 193 204 207 206 199 156
79 107 166 168 285 287 283 260 230 185 196 209 202 200 192 172 175 182 186 190 188 184 179 174 175 178 171 166 169 171 174 177 168 168 181 179 168 162 160 156 153 152 153 155 155 154 154 153 151 152 154 155 156 161 161 150 150 164 182 186 188 197 194 187 192 205 205 188 188 197 183 176 198 196 182 187 186 188 195 196 202 205 220 232 158
31 37 39 55 68 217 244 265 176 156 182 218 220 218 214 194 180 178 184 192 189 184 178 173 178 185 174 165 164 164 168 175 172 173 174 167 164 162 157 155 151 151 154 156 154 154 155 154 154 155 155 157 159 161 162 149 151 160 163 174 177 182 188 180 179 193 192 182 190 193 183 180 194 192 182 184 185 190 196 189 192 199 214 241 183
22 22 22 26 23 23 32 34 78 134 169 200 214 225 220 200 182 179 179 182 189 190 182 177 181 187 179 167 164 161 164 170 169 168 167 164 163 159 155 154 151 153 156 155 154 154 155 158 161 162 160 162 163 160 160 150 150 156 159 173 171 168 182 171 162 178 180 181 190 184 178 181 190 190 181 179 182 189 195 186 184 202 206 220 228
19 17 17 21 18 17 27 41 56 74 78 154 204 223 211 207 189 182 181 180 189 191 184 180 181 185 182 172 165 160 159 163 166 167 166 162 159 157 157 155 153 155 153 152 154 153 159 166 163 166 168 162 161 156 160 163 156 156 162 170 173 189 192 166 151 171 178 178 190 186 184 183 186 192 187 185 186 185 193 193 191 201 200 211 228
19 15 15 17 16 19 21 27 41 46 18 354 342 6 187 239 231 196 200 195 194 189 183 182 182 184 183 175 166 159 156 161 167 169 165 158 157 158 158 154 153 154 150 151 154 152 164 172 168 175 169 154 156 155 160 171 156 154 165 170 181 200 179 140 142 187 189 178 181 193 194 185 184 191 189 189 193 188 192 198 198 203 207 217 217
16 15 15 15 16 19 18 16 22 30 29 6 354 10 14 274 226 203 202 198 193 188 187 189 186 185 183 175 167 160 159 163 166 166 162 158 158 159 157 154 154 153 151 154 153 154 169 171 173 181 162 146 153 155 169 179 157 164 175 166 168 165 136 133 164 203 182 162 163 182 193 191 189 189 183 180 188 194 195 194 199 208 215 218 196
18 16 14 16 17 17 17 16 14 16 20 20 8 3 343 279 254 238 228 212 197 190 193 195 190 186 181 172 167 165 163 163 162 159 158 158 157 156 156 155 155 155 154 151 149 157 167 166 180 180 151 145 156 156 175 180 161 177 179 167 173 161 153 163 158 106 92 117 135 160 174 194 196 183 176 176 181 188 192 193 202 212 215 202 167
21 17 15 18 20 17 16 16 14 13 11 11 11 2 326 276 273 280 281 260 225 205 198 194 192 191 181 170 167 164 161 160 158 155 156 157 154 155 156 156 157 157 152 147 149 160 165 164 181 174 147 153 168 165 178 171 157 174 176 170 170 156 160 157 112 92 73 73 105 157 189 209 201 181 178 187 184 181 186 199 212 215 203 180 167
24 19 17 18 19 17 15 13 13 13 8 8 11 7 353 319 289 283 291 289 264 238 212 192 193 193 181 170 166 162 158 157 156 153 153 154 154 159 158 155 157 156 149 149 154 161 162 165 175 166 149 156 161 155 156 148 147 167 175 168 147 142 156 128 105 141 118 67 84 134 170 206 198 182 185 200 200 189 194 208 220 223 197 178 185
23 22 19 18 17 13 14 15 13 12 10 9 8 5 4 6 356 319 301 294 269 254 231 198 194 192 177 167 163 159 156 154 153 151 150 152 157 161 158 155 157 152 148 152 155 156 162 169 165 147 137 141 140 136 139 130 114 135 151 159 159 176 171 124 92 88 92 73 90 111 67 178 184 178 181 195 209 203 207 210 216 235 210 183 186
22 21 18 17 16 11 13 16 14 14 13 12 9 6 7 14 20 10 330 293 257 244 207 188 187 181 165 157 154 155 154 150 149 150 148 149 154 158 158 159 156 150 149 152 151 154 164 160 139 126 124 126 123 124 133 122 89 105 117 137 168 193 202 160 176 155 80 86 123 109 54 112 171 176 178 185 193 200 209 199 200 218 169 177 186
23 20 17 17 16 13 14 17 17 17 16 14 13 10 12 20 24 22 25 59 133 150 159 170 175 168 155 150 148 150 153 150 147 149 148 146 150 158 161 157 153 150 150 149 145 148 150 135 120 115 115 116 116 119 123 113 90 97 102 102 138 181 233 196 187 186 153 127 124 114 80 98 150 176 186 190 192 198 207 164 180 106 129 166 200
23 20 19 19 19 17 16 18 20 21 20 20 17 14 18 28 29 25 35 73 111 130 138 151 162 161 152 148 146 147 151 150 145 145 148 145 148 162 162 150 147 145 141 138 135 132 130 126 119 114 111 112 121 126 125 125 109 97 101 100 97 117 256 247 197 194 162 136 122 105 98 107 109 144 179 190 195 212 229 200 186 227 174 203 258
23 23 23 21 21 20 19 20 22 25 26 24 25 25 25 30 34 33 38 63 91 105 99 100 119 130 133 138 140 135 136 139 140 140 141 139 145 167 160 143 138 134 129 127 126 125 125 126 124 120 120 123 128 135 146 159 149 119 114 103 69 53 145 202 202 209 124 144 142 124 108 114 115 117 143 170 183 204 222 226 227 231 228 228 237
29 30 28 26 25 22 23 25 27 28 29 30 34 36 33 34 40 43 45 51 64 82 87 85 94 104 112 123 127 118 115 122 131 135 136 136 138 139 131 124 118 117 121 121 119 121 121 122 122 123 125 126 129 136 151 167 175 174 168 153 35 29 157 212 192 123 30 63 128 128 125 138 147 134 125 169 199 202 208 222 235 238 241 242 242
37 36 32 30 28 26 26 27 29 29 28 35 42 42 41 44 47 50 50 46 47 58 72 78 82 87 95 107 112 107 105 110 118 124 127 129 129 122 115 112 111 114 117 115 112 113 111 110 116 122 125 126 129 137 150 167 181 188 188 192 17 23 33 58 78 77 44 37 62 92 110 132 150 168 191 209 215 211 204 223 248 252 251 251 251
37 37 37 34 31 31 27 25 31 34 31 36 43 44 45 47 50 52 52 50 47 44 49 63 73 76 81 89 97 99 101 105 110 115 117 117 119 119 115 112 111 111 110 108 106 106 103 102 106 112 115 113 112 121 138 159 179 187 186 180 32 24 34 45 53 74 68 47 41 28 38 91 135 173 201 204 193 190 202 229 252 260 261 256 254
26 29 37 39 38 38 33 28 36 41 40 39 42 46 48 46 47 50 49 50 52 45 38 46 58 65 72 77 85 92 95 99 103 107 108 107 108 112 113 114 113 111 110 109 108 105 106 113 118 117 114 104 96 103 115 126 146 158 155 127 68 16 7 22 28 66 61 21 20 68 68 84 120 159 193 209 213 216 230 252 268 276 279 271 265
22 24 32 38 42 43 38 35 40 43 44 43 43 46 49 46 45 47 45 45 50 47 39 40 45 54 63 69 76 84 89 95 99 100 100 100 100 105 111 118 119 115 111 111 115 119 122 131 139 134 118 103 90 87 91 95 114 125 120 102 78 37 347 334 356 69 47 331 310 137 93 35 331 326 323 275 258 259 267 278 288 290 290 291 292
30 29 29 30 36 42 40 38 41 42 45 48 49 48 50 48 44 44 44 44 44 43 41 41 43 48 57 64 69 74 78 85 90 92 93 96 98 100 106 114 118 118 117 115 119 122 120 119 120 113 99 90 81 72 68 66 79 88 89 83 56 29 32 60 55 50 56 235 196 178 212 281 297 298 299 295 290 284 284 290 292 290 296 304 304
36 36 34 30 31 38 40 40 40 40 42 48 51 50 50 50 46 44 45 44 42 42 42 43 44 48 54 60 65 68 69 71 77 83 88 92 95 96 100 106 109 110 113 115 116 116 111 105 101 95 84 70 58 49 42 37 39 43 47 68 50 28 45 63 59 52 54 59 174 163 187 226 265 292 290 291 298 301 300 304 304 304 308 308 299
36 39 40 37 36 37 38 37 36 35 34 41 50 52 50 49 47 46 46 44 43 46 47 46 47 48 51 55 60 63 63 64 68 73 78 86 92 94 97 100 99 99 100 101 100 98 93 87 83 78 66 50 39 31 24 17 13 15 16 21 30 30 39 43 38 38 40 35 27 51 80 186 315 335 328 318 318 320 319 319 320 320 317 307 299
37 38 40 41 41 40 40 38 36 37 33 34 44 49 47 46 46 46 44 44 47 50 52 51 51 50 51 53 56 58 60 62 66 67 69 75 82 86 92 95 95 96 94 89 87 87 84 81 73 59 49 45 36 27 24 18 9 8 4 350 352 3 1 356 1 17 28 36 43 20 348 357 356 345 339 333 327 323 320 318 316 316 313 307 302
36 38 39 42 42 41 41 39 38 40 42 42 45 46 43 43 44 44 42 44 48 51 52 53 53 52 51 52 54 56 57 59 63 64 64 64 64 69 79 84 86 91 92 89 90 93 90 91 88 67 53 52 47 38 32 27 21 21 21 12 10 10 354 342 347 359 15 29 30 341 315 328 335 331 326 322 318 316 314 312 310 310 308 306 304
31 34 38 43 44 41 40 38 37 38 41 43 46 45 42 41 42 42 43 46 49 51 52 52 51 49 49 48 50 53 54 53 54 56 57 58 57 60 68 74 76 82 89 92 96 101 104 112 115 98 68 59 57 45 33 27 28 30 28 24 22 19 10 2 8 14 5 354 340 318 310 312 316 317 318 318 318 317 315 313 313 312 310 309 308
30 31 35 40 44 44 43 41 40 40 39 38 39 40 40 41 40 41 44 48 50 51 51 50 49 48 47 47 47 49 50 50 49 49 50 52 54 57 63 70 76 78 85 90 91 99 112 125 132 129 116 97 75 50 36 32 32 32 30 29 27 23 23 28 32 27 2 328 317 319 322 321 318 318 320 324 327 328 330 332 332 328 323 318 316
33 33 36 38 40 41 44 43 41 40 40 40 40 41 40 39 38 41 46 49 51 52 51 48 48 48 48 49 50 48 49 50 50 50 48 46 45 45 46 53 59 63 74 89 100 111 120 124 125 124 122 125 112 73 52 44 36 28 24 23 24 24 29 36 35 20 355 336 331 335 340 344 346 347 348 352 356 360 2 359 352 343 334 324 320
32 32 35 40 41 40 41 43 40 37 36 39 42 43 44 43 41 42 48 51 51 53 54 51 50 49 47 47 51 52 51 52 54 54 51 48 48 46 46 50 52 52 54 53 56 73 83 81 85 92 99 112 112 91 66 46 26 13 6 8 17 19 22 29 23 1 341 337 339 341 347 0 14 16 10 4 1 2 3 359 354 347 340 330 319
30 29 31 36 40 40 40 42 41 36 33 33 38 41 44 48 49 48 50 54 54 54 55 55 55 55 51 48 52 57 56 54 56 56 53 52 52 49 46 48 47 48 50 48 48 53 51 46 47 55 72 93 98 81 51 20 359 354 349 351 3 10 17 18 359 332 326 332 338 345 357 11 13 8 2 355 352 355 360 1 1 357 352 345 334
32 32 33 34 34 34 34 36 40 42 38 33 33 38 42 43 47 49 50 55 59 58 56 56 55 55 54 52 53 58 59 57 58 59 59 59 57 51 48 48 46 47 52 51 53 56 50 40 35 38 53 65 60 35 21 6 351 347 349 350 338 329 342 342 328 331 341 344 350 6 19 14 3 1 6 9 7 7 6 3 360 355 352 351 349
30 32 33 32 30 28 24 20 21 34 42 37 31 34 39 40 39 37 39 53 68 67 60 55 49 46 46 47 47 51 59 61 59 60 63 66 65 61 58 59 58 57 59 58 61 71 69 57 46 39 46 51 40 25 21 8 352 352 2 12 12 5 3 354 341 347 357 4 9 14 14 8 0 3 13 13 7 1 358 356 355 353 350 348 345
20 19 13 17 23 23 17 10 6 12 26 36 33 29 32 41 44 36 28 35 65 76 69 60 51 44 41 43 44 47 55 60 55 57 66 72 75 74 72 72 70 67 65 62 64 72 76 67 55 51 51 48 41 36 30 17 12 19 27 35 41 38 30 26 17 7 8 15 14 8 5 5 5 11 18 17 10 5 2 360 357 352 349 346 342
1 350 342 354 10 10 7 3 1 3 8 15 22 19 14 24 43 44 32 28 43 62 69 70 67 56 49 55 55 46 50 64 69 83 106 97 90 87 85 85 86 83 78 70 66 67 65 55 50 55 57 57 58 58 51 42 45 52 56 55 52 47 41 39 40 33 25 20 11 5 7 12 14 16 17 13 9 7 4 0 357 352 350 351 350